Location: ???????
(55.4362°N, 38.1183°E)
Time: 17:44:01
(UTC+00:00)

Cosmos 2219 Rocket - Pass Details

Date: 27 October 2021
Orbit: 826 x 848 km, 71.0° (Epoch: 04 December)

Event Time Altitude Azimuth Distance (km) Brightness Sun altitude
Rises 19:10:48 0° 260° (W) 3,373 5.7 -41.6°
Reaches altitude 10° 19:13:37 10° 273° (W) 2,445 5.0 -41.9°
Enters shadow 19:13:50 11° 274° (W) 2,380 4.9 -41.9°
